Regional Weather Roundup
Issued by NWS

Home | Current Version | Previous Version | Graphics & Text | Print | Product List | Glossary On
Versions: 1 2 3 4 5 6 7 8 9 10 11 12 13 14 15 16 17 18 19 20 21 22 23 24 25 26 27 28 29 30 31 32 33 34 35 36 37 38 39 40 41 42 43 44 45 46 47 48 49 50
000
ASUS43 KBIS 170320
RWRND

NORTH DAKOTA REGIONAL WEATHER ROUNDUP
NATIONAL WEATHER SERVICE BISMARCK ND
1000 PM CDT WED APR 16 2014

NOTE: "FAIR" INDICATES FEW OR NO CLOUDS BELOW 12,000 FEET WITH NO
SIGNIFICANT WEATHER AND/OR OBSTRUCTIONS TO VISIBILITY.


NDZ001>003-009>011-017-170400-
NORTHWEST NORTH DAKOTA

CITY           SKY/WX    TMP DP  RH WIND       PRES   REMARKS
WILLISTON        N/A    N/A N/A N/A MISG      30.27R
MINOT          CLOUDY    29  15  56 NE9       30.28R
MINOT AFB      CLOUDY    27  16  63 E8        30.28R WCI  19
$$

NDZ018>021-031>035-040>046-170400-
SOUTHWEST NORTH DAKOTA

CITY           SKY/WX    TMP DP  RH WIND       PRES   REMARKS
BISMARCK       CLOUDY    32  16  51 NE8       30.25R
DICKINSON      CLOUDY    27  20  75 E9        30.19R WCI  18
GARRISON         N/A     31  17  56 NE5       30.25R
HETTINGER ARPT CLOUDY    28  21  75 E9        30.19R WCI  19
$$

NDZ004>008-012>016-024-026-027-054-170400-
NORTHEAST NORTH DAKOTA

CITY           SKY/WX    TMP DP  RH WIND       PRES   REMARKS
GRAND FORKS    CLEAR     28  15  58 N8        30.23R WCI  20
GRND FRKS AFB  CLEAR     28  19  69 N15       30.28R WCI  16
DEVILS LAKE    CLEAR     27  12  54 NE13      30.29R WCI  16
$$

NDZ022-023-025-028>030-036>039-047>053-170400-
SOUTHEAST NORTH DAKOTA

CITY           SKY/WX    TMP DP  RH WIND       PRES   REMARKS
FARGO          CLEAR     31  18  58 N12       30.21R
JAMESTOWN      CLEAR     29  19  66 N12       30.23R WCI  19
$$




USA.gov is the U.S. government's official web portal to all federal, state and local government web resources and services.